Location: Fleurey
(47.3118°N, 4.8591°E)
Time: 15:10:24
(UTC+00:00)

Daily predictions for brighter satellites

Satellite Brightness Start Highest point End
(mag) Time Altitude Azimuth Time Altitude Azimuth Time Altitude Azimuth
Cosmos 1825 Rocket 4.4 20:12:06 10° SSE 20:16:05 33° E 20:20:06 10° NNE
ATLAS CENTAUR R/B 3.0 20:15:06 10° NNW 20:18:00 21° NE 20:20:51 10° E
Cosmos 1703 3.9 20:17:02 10° SSE 20:20:38 37° E 20:24:14 10° NNE
COSMOS 2428 4.0 20:17:26 10° SSE 20:21:30 21° E 20:25:34 10° NE
Cosmos 1812 Rocket 3.6 20:17:52 10° N 20:22:14 86° W 20:26:34 10° S
Cosmos 1844 4.1 20:17:55 10° NNW 20:23:38 58° ENE 20:29:16 10° SE
Cosmos 2322 4.3 20:20:01 10° S 20:25:09 36° ESE 20:30:20 10° NE
Cosmos 1602 Rocket 3.9 20:25:00 10° SSW 20:29:23 73° W 20:33:52 10° N
Cosmos 2263 Rocket 4.1 20:27:15 10° NW 20:31:43 25° WSW 20:36:11 10° SSW
Cosmos 1709 Rocket 4.4 20:26:13 10° SSE 20:32:12 49° E 20:38:16 10° NNE
Nadezhda 1 Rocket 4.2 20:26:24 10° N 20:32:51 88° W 20:39:15 10° S
MetOp-B 4.2 20:29:03 10° SSE 20:34:25 88° W 20:39:48 10° NNW
Atlas Centaur 2 3.9 20:30:50 10° SSW 20:34:35 17° S 20:38:47 10° SE
Terra 3.1 20:31:58 10° ESE 20:35:57 27° ENE 20:39:58 10° N
CARTOSAT-1 4.4 20:32:59 10° SE 20:36:58 38° ENE 20:40:58 10° N
Cosmos 2219 Rocket 3.0 20:32:37 10° SSE 20:37:23 30° ESE 20:42:12 10° NE
Cosmos 2360 Rocket 2.2 20:33:27 10° SSW 20:39:06 81° ESE 20:44:48 10° NNE
IGS 5A 3.5 20:35:56 10° SSE 20:40:05 77° ENE 20:44:15 10° N
Cosmos 2333 Rocket 2.7 20:41:54 10° S 20:47:06 38° ESE 20:52:21 10° NE
ATLAS 2AS CENTAUR R/B 4.2 20:43:28 10° NW 20:50:28 35° NNE 20:56:58 10° E
Cosmos 1315 Rocket 3.9 20:47:26 10° N 20:51:10 33° ENE 20:54:13 14° SE
Resurs 01 Rocket 3.0 20:47:56 10° SSW 20:51:59 35° W 20:56:04 10° NNW
Cosmos 1818 3.6 20:48:54 10° SW 20:54:20 87° NW 20:59:50 10° NE
Cosmos-2242 3.0 20:50:25 10° N 20:54:47 87° W 20:59:06 10° S
Cosmos 773 Rocket 4.1 20:51:58 10° S 20:57:09 58° ESE 21:02:21 10° NNE
SL-16 R/B 3.9 20:52:59 10° WSW 20:58:14 38° NW 21:03:31 10° NNE
Cosmos 2221 3.9 20:55:55 10° NNE 20:59:36 26° ENE 21:02:29 14° ESE
ERS-1 Rocket 3.0 20:56:51 13° SSE 21:01:22 71° ENE 21:06:24 10° N
GEOS 3 Rocket 3.7 20:58:31 10° NE 21:03:57 80° SE 21:09:20 10° SW
USA 215 3.3 21:00:59 10° ENE 21:07:24 54° SE 21:13:46 10° SSW
Cosmos 2278 Rocket 3.2 21:03:13 10° NNW 21:08:29 38° NE 21:13:09 13° ESE
ATLAS 5 CENTAUR R/B 1.8 21:06:54 10° SW 21:11:03 72° NW 21:15:45 10° NE
USA 245 4.2 21:08:37 10° S 21:11:44 42° W 21:15:39 10° NNW
Meteor 1-11 4.2 21:06:14 10° S 21:11:49 74° E 21:17:31 10° NNE
Cosmos 1844 Rocket 3.2 21:07:59 10° NW 21:13:24 52° WSW 21:18:16 13° S
Cosmos 1400 Rocket 3.5 21:10:13 10° NNW 21:14:06 50° W 21:17:41 11° S
Gblst 52 Del rocket 4.4 21:08:28 10° WNW 21:14:09 80° NNE 21:20:29 10° ESE
Cosmos 1758 Rocket 4.5 21:10:34 10° SSW 21:14:56 51° WNW 21:19:21 10° N
SPOT 5 2.9 21:13:56 16° SSE 21:18:05 86° ENE 21:22:55 10° NNW
Lacrosse 5 rocket 4.0 21:16:31 10° WNW 21:19:48 21° N 21:22:58 10° NE
Spot 2 Rocket 4.5 21:17:12 10° S 21:22:02 43° W 21:26:55 10° NNW
USA 81 4.0 21:19:52 12° S 21:24:46 82° E 21:30:05 10° N
Cosmos 2058 4.2 21:25:00 19° SE 21:26:43 25° E 21:30:09 10° NNE
BREEZE M DEB (TANK) 2.4 21:25:05 10° W 21:27:19 33° SSW 21:27:39 31° S
Cosmos 2181 Rocket 4.1 21:22:38 10° N 21:29:02 84° W 21:34:15 15° S
Cosmos 1408 4.5 21:29:06 14° E 21:29:50 15° E 21:31:56 10° NE
Cosmos 2074 Rocket 4.2 21:29:16 17° SSE 21:33:57 56° E 21:40:01 10° NNE
TSX-5 4.4 21:31:58 10° NNW 21:35:17 41° ENE 21:37:36 20° ESE
SPOT 1/Viking Rocket 4.5 21:31:53 10° SSW 21:36:38 42° W 21:41:34 10° NNW
Cosmos 1953 Rocket 4.3 21:33:50 10° SSW 21:38:03 52° WNW 21:42:17 10° N
Cosmos 1680 Rocket 4.5 21:35:42 21° SE 21:38:07 30° E 21:42:44 10° NE
USA 267 3.4 21:34:05 12° ESE 21:40:17 75° NNE 21:46:51 10° NW
Cosmos 2084 3.5 21:41:15 10° NW 21:45:43 74° SW 21:48:05 27° SSE
Cosmos 1842 Rocket 3.5 21:42:13 10° N 21:46:35 87° ENE 21:49:02 26° S
JB-3 4.3 21:44:24 10° NNE 21:48:12 58° E 21:49:57 29° SSE
MTI 3.6 21:49:06 10° NNE 21:52:11 69° ESE 21:53:10 39° S
Cosmos 923 Rocket 4.2 21:52:20 23° S 21:55:29 54° ESE 22:00:39 10° NNE
ATLAS CENTAUR R/B 1.5 21:53:33 10° NW 21:57:08 50° WSW 21:58:26 32° S
Cosmos 1825 3.6 21:58:09 21° ESE 21:58:50 23° E 22:01:51 10° NE
Cosmos 1980 3.9 21:56:55 23° S 22:00:16 51° ESE 22:05:44 10° NE
ALOS 2 4.4 21:58:03 15° ESE 22:00:24 22° ENE 22:03:46 10° NNE
Cosmos 967 Rocket 4.5 21:56:00 10° SSW 22:02:24 69° ESE 22:08:50 10° NE
COSMOS 2428 3.0 21:59:32 10° SW 22:05:11 69° WNW 22:10:53 10° NNE
Cosmos 1869 3.5 22:03:34 10° NNW 22:07:32 66° W 22:09:22 30° S
NOSS 0 Rocket 3.9 22:07:31 16° SSW 22:12:35 75° ESE 22:18:46 10° NNE
Terra 2.8 22:10:34 19° SSW 22:13:32 40° W 22:18:02 10° NNW
NOSS 3-4 (A) 3.9 22:07:23 10° NW 22:14:19 76° NE 22:19:46 21° SE
NOSS 3-4 (C) 3.9 22:07:29 10° NW 22:14:26 75° NE 22:19:55 21° SE
Cosmos 2237 Rocket 2.2 22:14:58 23° S 22:18:31 66° ESE 22:24:10 10° NNE
Genesis I 3.5 22:18:35 40° SE 22:19:08 43° ESE 22:22:51 10° NE
Cosmos 2344 3.7 22:16:02 20° S 22:21:05 51° ESE 22:28:38 10° NE
Cosmos 2219 Rocket 3.1 22:15:43 10° SW 22:21:06 48° NW 22:26:33 10° NNE
Elektron 1 4.2 22:21:21 36° SSW 22:22:33 67° SE 22:27:39 10° NE
Atlas Centaur 2 4.2 22:18:50 10° SW 22:21:21 15° SSW 22:21:21 15° SSW
NOSS 3-3 (A) 4.4 22:18:01 10° SW 22:23:54 63° NW 22:30:37 10° NE
NOSS 3-3 (C) 4.4 22:18:08 10° SW 22:24:01 64° NW 22:30:44 10° NE
DELTA 2 R/B (1) 4.1 22:24:00 10° SW 22:28:58 33° SSE 22:30:03 31° SE
Thor Agena Rocket 3.5 22:25:48 10° NNE 22:30:56 72° ESE 22:33:18 32° S
Cosmos 2333 Rocket 3.5 22:26:02 10° WSW 22:31:21 40° NW 22:36:44 10° NNE
Cosmos 2184 Rocket 4.4 22:27:10 16° SSW 22:32:09 59° WNW 22:38:24 10° N
Cosmos 2221 3.8 22:33:16 10° NNW 22:37:13 33° W 22:39:20 21° SW
BREEZE-M DEB (TANK) 1.5 22:36:56 10° WNW 22:40:55 78° NNE 22:41:22 56° E
Iridium 2 3.7 22:37:36 10° N 22:41:27 78° W 22:42:26 47° S
Cosmos 1371 Rocket 4.0 22:36:40 10° NNW 22:41:57 89° WSW 22:44:15 35° SSE
ATLAS 2AS CENTAUR R/B 2.8 22:34:41 10° NW 22:42:19 85° SW 22:46:25 28° SSE
Cosmos 1892 3.6 22:42:00 26° SW 22:43:40 43° WNW 22:47:20 10° N
EO 1 Del DPAF 3.1 22:40:14 10° NNE 22:44:01 88° ESE 22:44:59 48° SSW
Cosmos 1766 Rocket 4.1 22:44:24 37° SE 22:45:29 44° E 22:49:42 10° NNE
MOS 1-B Rocket 4.4 22:38:05 10° NNE 22:45:55 82° ESE 22:49:56 27° S
Okean 3 Rocket 3.8 22:47:02 41° SSE 22:48:16 56° E 22:52:37 10° NNE
Aureole 2 Rocket 2.5 22:46:14 10° NNW 22:48:59 48° ENE 22:48:59 48° ENE
Cosmos 1328 Rocket 4.2 22:44:58 10° N 22:49:05 42° ENE 22:50:25 32° ESE
USA 215 3.8 22:44:02 10° NE 22:50:29 62° NNW 22:56:55 10° WSW
Cosmos 1606 3.1 22:47:38 10° N 22:51:28 54° ENE 22:52:19 44° SE
Cosmos 2112 Rocket 4.1 22:48:24 26° SSW 22:51:32 80° WNW 22:56:55 10° NNE
Cosmos 2278 Rocket 3.0 22:47:21 10° NW 22:52:37 40° WSW 22:54:59 27° SSW
Cosmos 2218 Rocket 4.4 22:50:54 30° SSE 22:53:47 51° E 22:59:52 10° NNE
Cosmos 2297 3.9 22:48:30 10° NNW 22:54:15 68° ENE 22:57:11 29° SE
Cosmos 158 Rocket 4.1 22:52:56 25° SW 22:55:44 67° WNW 23:00:40 10° NNE
Cosmos 1420 Rocket 4.3 22:52:54 10° NNW 22:58:09 61° ENE 23:00:36 31° SE
Cosmos 2366 rocket 4.4 22:56:35 31° SSE 22:59:28 54° E 23:05:37 10° NNE
Lacrosse 5 rocket 3.4 22:56:35 10° NW 23:00:01 26° NNE 23:03:18 10° ENE
Cosmos 1943 Rocket 3.2 22:55:26 10° NNW 23:00:47 40° NE 23:04:40 17° ESE
Spot 4 4.2 22:59:07 35° SSW 23:00:52 54° W 23:05:35 10° NNW
Cosmos 1633 4.3 23:01:11 20° E 23:01:23 20° E 23:04:06 10° NE
SL-16 R/B 2.4 23:00:46 36° SSE 23:02:52 56° ESE 23:08:25 10° NE
TIMED 4.5 23:01:49 40° SSW 23:03:20 84° WNW 23:07:45 10° NNE
Cosmos 2058 4.5 23:01:11 18° WSW 23:03:31 30° WNW 23:07:12 10° N
Cosmos 1408 3.6 23:03:24 29° WSW 23:04:31 37° WNW 23:07:53 10° N
Cosmos 2056 Rocket 3.7 23:00:30 10° NNW 23:05:53 67° WSW 23:07:58 37° S
Cosmos 2341 Rocket 4.1 23:11:46 30° SSW 23:15:04 75° W 23:21:19 10° N
Cosmos 332 Rocket 4.1 23:14:46 10° NNW 23:19:31 58° ENE 23:21:28 33° SE
Meteor 2-3 Rocket 3.8 23:21:02 37° SSE 23:23:12 64° E 23:28:51 10° NNE
USA 267 3.8 23:21:24 32° S 23:23:36 40° SW 23:29:43 10° WNW
IRIDIUM 104 4.3 23:23:26 40° S 23:25:24 86° W 23:30:40 10° N
Cosmos 2151 3.7 23:23:52 31° SW 23:25:26 45° WNW 23:29:34 10° N
Helios 1A 3.0 23:24:53 47° SE 23:25:58 70° ENE 23:30:07 10° N
Cosmos 405 3.8 23:25:14 10° N 23:28:36 39° ENE 23:29:08 37° E
Meteor 1-26 Rocket 4.3 23:26:42 10° N 23:32:45 85° E 23:35:20 36° SSE
Cosmos 1452 Rocket 3.5 23:27:41 10° NNW 23:32:59 80° ENE 23:35:06 37° SSE
CZ-4C R/B 3.7 23:26:55 10° NW 23:33:39 50° NE 23:41:27 10° ESE
SL-8 Rocket 4.1 23:30:59 32° SSW 23:34:01 72° W 23:40:12 10° N
Cosmos 1825 3.7 23:32:56 23° WSW 23:34:13 28° WNW 23:37:33 10° NNW
IRIDIUM 114 4.4 23:32:35 38° SSW 23:34:34 72° W 23:39:49 10° N
COSMOS 2455 3.0 23:28:44 10° NNW 23:34:48 73° NE 23:38:24 25° SE
Cosmos 1340 2.5 23:34:23 66° SSW 23:34:53 87° WNW 23:38:40 10° N
ALOS 2 3.2 23:35:27 37° SW 23:36:28 44° W 23:40:41 10° NNW
Cosmos 1408 Rocket 3.5 23:35:56 51° S 23:37:02 89° W 23:41:28 10° N
Cosmos 1933 3.5 23:33:34 10° NNW 23:37:32 59° W 23:38:13 50° SW
Cosmos 1151 Rocket 3.3 23:34:50 10° NNW 23:39:05 55° W 23:40:03 44° SW
Meteor 2-12 Rocket 4.5 23:37:27 34° SSW 23:40:19 77° W 23:46:30 10° N
APEX 3.2 23:42:18 10° NNW 23:44:22 47° NW 23:44:22 47° NW
Cosmos 1727 Rocket 3.9 23:38:56 10° N 23:45:12 90° W 23:48:04 35° S
Cosmos 44 3.2 23:43:38 33° WSW 23:45:26 66° NW 23:49:53 10° NNE
Cosmos 2369 Rocket 2.6 23:39:53 10° NNW 23:45:26 59° ENE 23:48:49 24° SE
Cosmos 1500 Rocket 3.8 23:44:49 44° SE 23:45:51 56° E 23:50:11 10° NNE
Resurs 1-4 Rocket 4.4 23:44:15 10° ENE 23:45:54 11° E 23:47:31 10° ESE
GP-B 3.9 23:43:15 10° NNW 23:47:27 42° W 23:48:50 32° SW
SL-4 R/B 3.5 23:48:59 14° NW 23:48:59 14° NW 23:49:28 10° NNW
Cosmos 371 Rocket 3.5 23:44:25 10° NNW 23:49:12 57° WSW 23:50:25 43° SSW
SeaSat 1 4.4 23:47:21 10° ENE 23:50:15 15° ESE 23:51:20 15° ESE
Helios 1B rocket 3.1 23:50:42 10° NNE 23:54:39 41° E 23:55:23 37° SE
CREW DRAGON DEMO-1 DEB 3.6 23:54:49 33° WNW 23:55:50 50° NNW 23:58:51 10° ENE
